User: anonymous   Login
Location: Lobos
(35.3000°S, 59.0940°W)
Time: 02:25:03
(UTC-03:00)
Language:

DIWATA 2B (PO-101) - Orbit

View from above orbital plane
View from above orbital plane
View from above satellite
View from above satellite

Ground track
Ground track

The orbit data is extracted from the following two-line orbital elements,

1 43678U 18084H   20330.73726340 -.00000118  00000-0 -60007-5 0  9999
2 43678  97.9021  89.3114 0010310  12.5959 347.5518 14.91672522113063
Epoch (UTC): 25 November 2020 17:41:39
Eccentricity: 0.0010310
inclination: 97.9021°
perigee height: 585 km
apogee height: 600 km
right ascension of ascending node: 89.3114°
argument of perigee: 12.5959°
revolutions per day: 14.91672522
mean anomaly at epoch: 347.5518°
orbit number at epoch: 11306

The dashed part of the orbit path shows where the satellite is in the earth's shadow,  

DLR